Location: ?????
(31.8092°N, 35.2590°E)
Time: 15:17:38
(UTC+00:00)

Cosmos 1726 - Pass Details

Date: 20 June 2021
Orbit: 480 x 496 km, 82.5° (Epoch: 31 July)

Event Time Altitude Azimuth Distance (km) Brightness Sun altitude
Rises 17:31:27 0° 4° (N) 2,544 6.2 -8.8°
Reaches altitude 10° 17:33:40 10° 13° (NNE) 1,663 5.1 -9.2°
Maximum altitude 17:37:01 35° 81° (E) 799 2.8 -9.8°
Enters shadow 17:39:50 13° 144° (SE) 1,460 3.9 -10.2°
